Durant, OK

7:19 PM CDT on August 21, 2017 (GMT -0500)
Eaker

Weather History for KDUA - October, 2013

Change the Weather History Date:

Friday, October 4, 2013

  Actual Average (KMLC) Record (KMLC)
Temperature  
Mean Temperature 82 °F -  
Max Temperature 91 °F 80 °F 98 °F (1963)
Min Temperature 73 °F 54 °F 37 °F (1975)
Cooling Degree Days 17    
Growing Degree Days 32 (Base 50)    
Moisture  
Dew Point 68 °F    
Average Humidity 69    
Maximum Humidity 94    
Minimum Humidity 41    
Precipitation  
Precipitation 0.00 in - - ()
Sea Level Pressure  
Sea Level Pressure 29.89 in    
Wind  
Wind Speed 10 mph (South)    
Max Wind Speed 21 mph    
Max Gust Speed 25 mph    
Visibility 10 miles    
Events      
Averages and records for this station are not official NWS values.
T = Trace of Precipitation, MM = Missing Value Source: NWS Daily Summary

Daily Weather History Graph

Daily Weather History Graph

Search for Another Location

Airport or City:

Trip Planner

Search our weather history database for the weather conditions in past years. The results will help you decide how hot, cold, wet, or windy it might be!

Date:

Astronomy

Oct. 04, 2013 Rise Set
Actual Time 7:22 AM CDT 7:05 PM CDT
Civil Twilight 6:57 AM CDT 7:30 PM CDT
Nautical Twilight 6:28 AM CDT 7:59 PM CDT
Astronomical Twilight 5:59 AM CDT 8:28 PM CDT
Moon 6:58 AM CDT (10/4) 6:50 PM CDT (10/4)
Length of Visible Light 12h 32m
Length of Day
11h 42m
Waning Crescent, 0% of the Moon is Illuminated
Oct 4
Waning Crescent
Oct 4
New
Oct 11
First Quarter
Oct 18
Full
Oct 26
Last Quarter

Hourly Weather History & Observations

Time (CDT) Temp. Heat Index Dew Point Humidity Pressure Visibility Wind Dir Wind Speed Gust Speed Precip Events Conditions
12:15 AM 77.0 °F - 69.8 °F 78% 29.87 in 10.0 mi SSE 9.2 mph - N/A   Clear
12:35 AM 77.0 °F - 69.8 °F 78% 29.88 in 10.0 mi SSE 6.9 mph - N/A   Clear
12:55 AM 75.2 °F - 69.8 °F 83% 29.88 in 10.0 mi SSE 9.2 mph - N/A   Clear
1:15 AM 75.2 °F - 69.8 °F 83% 29.88 in 10.0 mi SSE 8.1 mph - N/A   Clear
1:35 AM 75.2 °F - 69.8 °F 83% 29.89 in 10.0 mi SSE 6.9 mph - N/A   Clear
1:55 AM 73.4 °F - 69.8 °F 88% 29.89 in 10.0 mi SSE 8.1 mph - N/A   Clear
2:15 AM 73.4 °F - 69.8 °F 88% 29.89 in 10.0 mi SSE 6.9 mph - N/A   Clear
2:35 AM 73.4 °F - 69.8 °F 88% 29.88 in 10.0 mi SSE 8.1 mph - N/A   Scattered Clouds
2:55 AM 75.2 °F - 71.6 °F 89% 29.89 in 10.0 mi SSE 9.2 mph - N/A   Scattered Clouds
3:15 AM 75.2 °F - 71.6 °F 89% 29.89 in 10.0 mi SSE 9.2 mph - N/A   Scattered Clouds
3:35 AM 75.2 °F - 71.6 °F 89% 29.89 in 10.0 mi SSE 10.4 mph - N/A   Clear
3:55 AM 75.2 °F - 71.6 °F 89% 29.89 in 10.0 mi SSE 8.1 mph - N/A   Scattered Clouds
4:15 AM 73.4 °F - 71.6 °F 94% 29.89 in 10.0 mi South 8.1 mph - N/A   Clear
4:35 AM 73.4 °F - 71.6 °F 94% 29.89 in 10.0 mi Calm Calm - N/A   Clear
4:55 AM 73.4 °F - 71.6 °F 94% 29.89 in 10.0 mi Calm Calm - N/A   Clear
5:15 AM 73.4 °F - 71.6 °F 94% 29.89 in 10.0 mi South 9.2 mph - N/A   Clear
5:35 AM 73.4 °F - 71.6 °F 94% 29.89 in 10.0 mi South 9.2 mph - N/A   Clear
5:55 AM 73.4 °F - 69.8 °F 88% 29.90 in 10.0 mi South 8.1 mph - N/A   Clear
6:15 AM 73.4 °F - 71.6 °F 94% 29.90 in 10.0 mi South 9.2 mph - N/A   Scattered Clouds
6:35 AM 73.4 °F - 71.6 °F 94% 29.91 in 10.0 mi South 10.4 mph - N/A   Scattered Clouds
6:55 AM 73.4 °F - 71.6 °F 94% 29.90 in 10.0 mi South 10.4 mph - N/A   Clear
7:35 AM 73.4 °F - 69.8 °F 88% 29.91 in 10.0 mi South 10.4 mph - N/A   Scattered Clouds
7:55 AM 73.4 °F - 71.6 °F 94% 29.91 in 10.0 mi South 10.4 mph - N/A   Scattered Clouds
8:15 AM 73.4 °F - 71.6 °F 94% 29.92 in 10.0 mi South 10.4 mph - N/A   Scattered Clouds
8:35 AM 75.2 °F - 71.6 °F 89% 29.92 in 10.0 mi South 11.5 mph - N/A   Mostly Cloudy
8:55 AM 77.0 °F - 71.6 °F 83% 29.92 in 7.0 mi South 12.7 mph - N/A   Mostly Cloudy
9:15 AM 77.0 °F - 71.6 °F 83% 29.93 in 10.0 mi South 16.1 mph - N/A   Mostly Cloudy
9:35 AM 78.8 °F - 71.6 °F 78% 29.93 in 10.0 mi SSW 16.1 mph 20.7 mph N/A   Mostly Cloudy
9:55 AM 78.8 °F - 69.8 °F 74% 29.93 in 10.0 mi SSW 20.7 mph - N/A   Scattered Clouds
10:15 AM 78.8 °F - 69.8 °F 74% 29.93 in 10.0 mi SSW 15.0 mph 21.9 mph N/A   Scattered Clouds
10:35 AM 80.6 °F 83.9 °F 69.8 °F 70% 29.93 in 10.0 mi SSW 11.5 mph 17.3 mph N/A   Scattered Clouds
10:55 AM 82.4 °F 86.3 °F 69.8 °F 66% 29.93 in 10.0 mi SSW 13.8 mph 20.7 mph N/A   Scattered Clouds
11:15 AM 82.4 °F 86.3 °F 69.8 °F 66% 29.93 in 10.0 mi SSW 18.4 mph 24.2 mph N/A   Scattered Clouds
11:35 AM 84.2 °F 87.3 °F 68.0 °F 58% 29.92 in 10.0 mi South 16.1 mph 21.9 mph N/A   Scattered Clouds
11:55 AM 86.0 °F 90.4 °F 69.8 °F 58% 29.92 in 10.0 mi SSW 15.0 mph 19.6 mph N/A   Scattered Clouds
12:15 PM 86.0 °F 89.4 °F 68.0 °F 55% 29.92 in 10.0 mi South 13.8 mph 20.7 mph N/A   Scattered Clouds
12:35 PM 86.0 °F 89.4 °F 68.0 °F 55% 29.92 in 10.0 mi SSW 11.5 mph - N/A   Scattered Clouds
12:55 PM 84.2 °F 87.3 °F 68.0 °F 58% 29.91 in 10.0 mi South 12.7 mph - N/A   Mostly Cloudy
1:15 PM 87.8 °F 91.4 °F 68.0 °F 52% 29.90 in 10.0 mi South 13.8 mph 20.7 mph N/A   Scattered Clouds
1:35 PM 87.8 °F 91.4 °F 68.0 °F 52% 29.89 in 10.0 mi South 13.8 mph - N/A   Scattered Clouds
1:55 PM 87.8 °F 90.4 °F 66.2 °F 49% 29.89 in 10.0 mi South 12.7 mph 20.7 mph N/A   Scattered Clouds
2:15 PM 89.6 °F 93.4 °F 68.0 °F 49% 29.87 in 10.0 mi South 16.1 mph - N/A   Scattered Clouds
2:35 PM 89.6 °F 91.1 °F 64.4 °F 43% 29.87 in 10.0 mi South 18.4 mph 23.0 mph N/A   Scattered Clouds
2:55 PM 89.6 °F 91.1 °F 64.4 °F 43% 29.86 in 10.0 mi South 17.3 mph - N/A   Scattered Clouds
3:15 PM 89.6 °F 91.1 °F 64.4 °F 43% 29.86 in 10.0 mi SSW 18.4 mph 25.3 mph N/A   Scattered Clouds
3:35 PM 89.6 °F 91.1 °F 64.4 °F 43% 29.85 in 10.0 mi South 18.4 mph 24.2 mph N/A   Scattered Clouds
3:55 PM 89.6 °F 91.1 °F 64.4 °F 43% 29.85 in 10.0 mi South 19.6 mph 25.3 mph N/A   Scattered Clouds
4:15 PM 89.6 °F 91.1 °F 64.4 °F 43% 29.85 in 10.0 mi SSE 15.0 mph 21.9 mph N/A   Scattered Clouds
4:35 PM 91.4 °F 93.2 °F 64.4 °F 41% 29.84 in 10.0 mi South 16.1 mph 25.3 mph N/A   Mostly Cloudy
4:55 PM 89.6 °F 91.1 °F 64.4 °F 43% 29.85 in 10.0 mi South 12.7 mph 21.9 mph N/A   Scattered Clouds
5:15 PM 87.8 °F 89.4 °F 64.4 °F 46% 29.85 in 10.0 mi South 16.1 mph - N/A   Scattered Clouds
5:35 PM 87.8 °F 89.4 °F 64.4 °F 46% 29.85 in 10.0 mi South 16.1 mph - N/A   Scattered Clouds
5:55 PM 87.8 °F 89.4 °F 64.4 °F 46% 29.85 in 10.0 mi South 16.1 mph - N/A   Scattered Clouds
6:15 PM 87.8 °F 89.4 °F 64.4 °F 46% 29.85 in 10.0 mi South 13.8 mph - N/A   Scattered Clouds
6:35 PM 86.0 °F 88.2 °F 66.2 °F 51% 29.85 in 10.0 mi South 12.7 mph - N/A   Clear
6:55 PM 86.0 °F 87.3 °F 64.4 °F 48% 29.85 in 10.0 mi South 11.5 mph 17.3 mph N/A   Clear
7:15 PM 84.2 °F 86.6 °F 66.2 °F 55% 29.85 in 10.0 mi South 11.5 mph - N/A   Clear
7:35 PM 82.4 °F 84.6 °F 66.2 °F 58% 29.85 in 10.0 mi SSE 9.2 mph - N/A   Clear
7:55 PM 80.6 °F 82.7 °F 66.2 °F 61% 29.85 in 10.0 mi SSE 10.4 mph - N/A   Clear
8:15 PM 80.6 °F 82.7 °F 66.2 °F 61% 29.85 in 10.0 mi SSE 9.2 mph - N/A   Clear
8:35 PM 80.6 °F 82.7 °F 66.2 °F 61% 29.85 in 10.0 mi SSE 10.4 mph - N/A   Clear
8:55 PM 80.6 °F 83.2 °F 68.0 °F 65% 29.86 in 10.0 mi SSE 9.2 mph - N/A   Clear
9:15 PM 80.6 °F 83.2 °F 68.0 °F 65% 29.86 in 10.0 mi SSE 10.4 mph - N/A   Clear
9:35 PM 80.6 °F 83.2 °F 68.0 °F 65% 29.87 in 10.0 mi SSE 9.2 mph - N/A   Clear
9:55 PM 78.8 °F - 68.0 °F 69% 29.88 in 10.0 mi SSE 9.2 mph - N/A   Clear
10:15 PM 78.8 °F - 68.0 °F 69% 29.88 in 10.0 mi SSE 8.1 mph - N/A   Clear
10:35 PM 78.8 °F - 68.0 °F 69% 29.89 in 10.0 mi SSE 8.1 mph - N/A   Clear
10:55 PM 78.8 °F - 68.0 °F 69% 29.89 in 10.0 mi SSE 9.2 mph - N/A   Clear
11:15 PM 78.8 °F - 68.0 °F 69% 29.89 in 10.0 mi SSE 8.1 mph - N/A   Clear
11:35 PM 78.8 °F - 68.0 °F 69% 29.89 in 10.0 mi SSE 8.1 mph - N/A   Clear
11:55 PM 77.0 °F - 68.0 °F 74% 29.89 in 10.0 mi SSE 9.2 mph - N/A   Clear